Theta_e
298 297 294 297 297 298 299 302 303 301 301 302 302 302 302 302 302 302 302 301 301 300 300 301 301 301 300 301 304 303 301 302 304 312 330 327 328 331 330 329 328 328 331 330
293 291 297 298 299 300 300 302 302 301 301 302 303 303 302 302 301 296 297 298 298 299 299 300 300 301 301 299 302 303 302 303 305 317 320 326 328 331 331 331 329 330 330 326
299 299 299 300 300 298 298 300 301 302 302 300 301 303 302 299 297 296 295 294 295 295 296 297 298 300 301 300 300 302 301 302 305 313 322 325 326 329 330 328 329 328 329 325
297 298 300 300 298 299 299 300 302 303 301 301 301 302 301 299 298 296 295 294 294 294 295 296 296 297 299 300 299 300 301 301 302 312 322 325 326 327 327 328 329 327 329 327
295 298 299 297 300 300 300 301 299 299 300 301 294 302 298 296 295 294 294 294 293 293 295 296 296 296 298 299 300 300 301 306 308 311 317 321 324 326 326 327 328 329 325 325
294 296 299 299 300 300 299 296 295 295 297 296 293 298 295 295 294 293 293 293 292 293 295 298 298 297 297 299 300 303 310 312 314 314 315 317 322 323 324 327 328 328 328 328
292 292 294 298 300 298 298 290 289 291 291 295 289 301 291 294 292 291 292 292 292 292 295 298 297 296 300 303 306 309 310 310 310 311 311 312 316 320 322 325 326 328 328 328
290 296 290 296 299 298 295 296 295 296 297 298 294 297 299 296 292 290 290 291 291 292 294 298 298 299 300 301 303 304 305 306 306 307 308 309 314 316 319 321 325 326 328 327
293 292 294 296 299 297 294 294 297 299 290 297 296 296 295 292 291 290 290 290 290 291 293 296 298 298 298 298 298 300 300 301 303 306 308 310 311 314 318 321 322 325 325 325
291 296 290 292 298 295 292 293 293 296 295 292 291 285 291 291 290 289 289 289 289 290 292 294 295 295 295 296 297 298 298 299 300 302 303 304 308 309 312 314 317 319 320 319
289 294 293 295 293 298 294 292 294 296 299 298 296 292 293 292 290 290 289 289 289 290 290 292 293 293 293 293 294 294 295 296 296 297 298 300 301 303 306 307 309 312 315 317
294 293 297 293 295 298 293 298 297 299 296 299 298 296 294 291 290 289 289 288 289 289 289 291 291 291 291 291 291 291 292 293 293 294 295 295 297 297 298 301 302 306 309 308
295 287 294 296 296 296 298 299 297 298 298 298 299 296 293 291 289 289 288 288 288 288 288 289 289 290 290 290 290 289 290 290 291 292 292 292 292 292 293 293 296 299 299 299
295 295 291 294 296 295 297 298 295 296 292 296 297 296 293 290 289 288 288 287 287 288 287 287 287 288 288 289 289 288 288 289 289 290 289 289 290 290 290 291 292 293 294 294
288 283 291 292 291 292 297 295 294 292 295 297 296 296 293 291 289 288 287 287 287 287 286 286 286 286 286 287 288 288 288 288 288 289 288 288 288 289 288 289 290 292 293 293
291 282 286 285 294 296 300 299 294 293 291 290 293 295 294 291 289 287 287 287 286 286 286 285 285 285 285 285 286 287 286 287 287 287 287 287 288 290 288 288 288 288 290 291
287 282 280 287 289 289 293 292 289 291 288 291 295 294 293 292 289 287 286 286 286 285 285 285 285 284 284 285 285 285 285 286 286 286 286 287 288 286 286 287 287 286 285 286
280 277 276 288 284 291 292 292 288 289 292 288 291 290 292 292 290 288 286 285 285 285 284 284 283 284 283 284 284 284 284 284 285 285 285 285 286 285 285 286 285 285 284 284
289 280 279 294 295 288 293 292 292 291 292 292 291 289 290 291 292 289 285 284 284 284 283 282 282 282 282 283 283 283 283 283 283 283 283 284 284 284 284 284 284 284 284 284
286 284 281 276 287 289 293 290 289 288 286 290 289 289 289 290 289 288 284 283 283 282 282 280 280 280 281 282 282 282 282 282 282 283 283 283 284 284 284 284 284 284 284 284
272 270 278 272 282 286 288 289 288 285 289 289 288 288 287 288 287 285 283 282 281 280 280 280 278 277 278 281 282 281 282 281 283 284 284 284 284 283 284 283 283 283 284 284
282 280 277 272 280 288 287 289 290 289 290 288 287 287 286 285 284 283 281 281 279 279 278 278 277 276 277 280 281 280 280 281 284 285 286 286 285 285 284 285 283 283 283 283
283 283 283 286 288 287 285 289 289 288 288 287 286 286 284 284 283 281 280 278 277 276 276 276 276 275 275 276 277 277 278 280 282 284 284 285 285 285 285 285 285 284 284 284
282 280 283 283 283 284 286 286 287 287 287 286 285 284 283 282 278 279 277 277 276 275 275 275 275 275 275 275 275 275 277 279 279 281 282 283 283 284 284 284 284 284 284 284
283 282 281 282 281 278 282 282 285 285 281 280 278 280 281 282 281 279 276 277 277 275 275 275 275 275 274 275 276 277 278 278 278 279 280 280 281 282 282 282 282 282 282 283
281 284 285 286 285 288 286 285 281 281 280 280 280 277 280 282 280 280 278 279 277 276 275 276 276 275 276 275 275 276 277 277 278 277 278 278 279 281 282 281 282 282 282 282
Wind_Speed
3 4 2 6 7 8 10 16 21 20 18 19 17 22 21 18 16 17 19 17 14 13 10 25 26 28 23 30 32 34 31 32 20 15 12 10 14 22 23 25 40 32 38 31
6 2 5 5 8 7 11 20 22 18 9 10 17 22 24 22 6 7 11 9 9 8 8 13 21 25 23 18 30 29 19 23 25 17 20 14 13 18 22 24 34 35 39 39
3 5 6 3 9 8 7 10 15 19 17 18 20 14 7 4 2 11 13 12 11 12 12 13 14 20 25 19 20 26 20 18 12 17 19 15 16 9 12 21 22 31 31 36
6 4 4 9 6 5 12 7 18 21 15 7 6 6 4 10 11 17 17 16 15 16 14 12 13 15 19 19 22 18 20 17 18 12 11 14 16 14 14 17 22 30 30 39
6 4 5 5 7 10 10 16 22 21 14 10 6 3 3 6 14 22 21 22 22 20 17 19 13 16 22 21 19 18 16 17 12 11 11 11 11 15 14 15 23 25 27 31
7 4 3 4 12 11 10 10 15 2 2 1 4 2 2 5 12 19 20 20 20 21 23 19 21 13 19 14 11 13 13 10 7 6 8 6 7 10 13 14 20 25 29 30
8 4 4 4 7 4 16 7 5 6 4 4 3 4 3 2 10 12 20 20 19 19 20 16 14 9 2 4 8 9 9 10 6 4 3 3 7 11 14 16 18 20 25 26
4 8 4 7 2 7 8 3 0 6 4 11 4 3 2 3 14 15 16 17 17 18 18 13 11 8 6 7 9 6 4 3 2 3 3 5 8 12 18 19 20 16 25 21
3 6 5 3 3 2 8 7 6 5 5 4 3 3 5 18 19 19 18 17 17 17 17 12 11 12 12 12 12 10 6 6 6 4 5 8 8 10 13 12 13 20 5 9
3 6 4 7 5 4 5 5 5 3 6 6 5 4 5 20 24 20 20 19 17 16 16 12 9 13 14 15 14 9 9 8 7 3 2 3 5 6 7 9 13 12 5 9
3 2 7 2 2 3 6 5 3 2 2 3 5 4 6 19 19 19 16 15 15 15 14 11 8 13 13 16 15 12 11 11 9 6 3 4 5 6 8 11 11 12 8 6
2 2 6 8 4 1 4 7 3 2 5 4 3 4 14 17 15 15 15 13 14 13 12 9 10 13 15 15 14 13 12 14 11 10 9 10 10 10 13 13 13 12 11 10
1 2 5 8 4 3 5 14 10 5 3 3 4 6 10 15 16 15 14 15 13 12 11 10 11 12 15 16 14 16 15 16 14 14 17 18 18 19 20 20 19 19 18 17
3 2 5 5 5 2 6 11 10 4 2 8 4 11 14 17 19 17 15 13 13 12 13 13 12 11 17 17 16 17 19 19 19 22 23 24 24 24 25 25 27 27 27 27
3 3 2 7 11 3 5 5 8 5 7 3 11 13 9 17 15 15 14 14 14 14 15 14 12 12 19 19 21 22 22 23 22 27 28 25 25 29 29 31 33 33 33 32
1 2 1 5 5 7 4 4 6 4 5 4 10 5 13 11 13 16 15 15 14 13 14 15 15 17 20 23 23 21 22 23 25 28 27 26 30 34 31 34 33 32 33 31
2 2 3 5 5 4 4 4 2 3 2 3 5 6 13 6 15 16 17 16 15 15 15 15 16 22 25 25 21 21 23 25 30 29 26 29 33 33 28 34 34 33 32 30
4 3 2 3 5 3 5 3 4 4 4 2 3 6 7 7 4 13 15 15 17 17 16 15 20 22 24 24 24 24 28 29 31 29 28 27 30 29 31 34 32 31 30 30
4 3 1 1 2 6 3 4 3 2 3 1 3 4 4 9 7 10 14 13 11 11 14 15 18 17 20 25 23 25 28 26 26 24 26 27 27 28 28 30 27 27 29 28
5 4 3 3 2 4 3 2 3 3 3 4 1 2 3 6 5 3 9 10 12 14 15 16 17 17 23 23 19 22 24 26 24 23 26 26 26 26 25 24 24 23 24 26
2 3 4 1 3 7 4 4 4 5 4 5 4 1 2 2 1 3 5 7 11 12 14 16 16 16 18 19 22 26 27 25 21 22 24 24 22 21 20 20 20 18 21 21
7 6 4 3 2 6 6 4 5 3 2 5 4 4 3 3 2 1 4 5 8 10 13 14 15 19 20 19 21 19 22 17 17 17 19 19 17 16 15 17 15 15 16 19
2 6 4 8 5 2 6 5 3 4 5 5 5 4 6 5 3 2 2 4 7 7 7 10 12 15 19 19 19 17 17 15 13 12 14 14 12 11 11 11 12 13 13 15
4 4 2 3 3 6 6 4 4 6 5 5 6 7 6 4 5 4 3 3 4 5 7 9 10 16 18 18 18 16 15 13 11 12 11 9 7 8 8 9 9 10 10 12
4 5 5 5 6 3 6 7 7 5 4 3 2 4 6 7 4 4 3 5 4 3 4 5 9 13 15 16 17 16 15 13 11 10 10 10 8 8 8 12 12 9 10 9
6 8 6 7 8 7 6 12 9 10 8 7 7 2 3 7 7 7 6 4 3 2 1 2 4 6 10 12 14 14 12 12 11 10 9 8 6 5 4 7 10 10 10 10
Wind_Direction
14 30 245 265 220 246 279 278 283 280 283 284 283 276 287 285 281 286 277 273 274 275 268 270 276 279 273 219 216 260 255 251 269 253 221 214 214 220 221 209 219 223 215 215
16 232 220 270 268 256 262 283 289 288 264 291 288 284 288 290 326 11 7 357 333 316 307 286 273 275 277 241 204 226 238 242 243 236 229 217 219 216 220 224 221 216 215 214
288 255 319 265 297 292 249 268 289 283 307 295 275 280 279 87 88 8 0 347 336 324 313 311 301 268 269 255 211 189 231 229 224 231 224 225 234 211 210 226 234 214 213 212
251 277 299 304 266 292 309 254 298 295 310 301 40 296 36 346 348 347 344 341 331 322 315 306 301 293 275 259 240 226 204 229 229 231 224 216 225 210 208 225 221 207 217 225
258 312 0 311 298 331 270 312 291 287 283 289 318 243 14 9 348 340 337 336 330 326 319 307 286 280 292 285 261 237 212 208 215 229 240 232 240 237 233 225 225 205 223 234
253 312 255 243 296 295 315 306 316 20 139 324 262 157 29 17 336 325 328 328 326 324 321 310 297 294 298 277 234 208 187 169 192 220 235 237 247 245 252 240 223 213 216 221
330 284 285 260 306 317 351 341 350 358 7 239 283 294 226 17 357 332 325 326 327 327 323 319 315 315 246 152 153 159 168 154 180 212 272 302 264 250 250 259 246 227 219 219
32 335 5 345 343 297 338 29 291 311 318 298 337 276 268 309 357 335 328 327 330 335 330 341 355 26 66 65 67 80 67 58 19 359 333 294 270 254 250 254 249 265 216 220
357 278 303 200 287 60 312 2 289 256 234 289 286 288 324 341 349 345 339 339 339 337 334 348 0 26 39 38 43 45 39 22 23 359 299 262 256 250 242 242 245 224 172 191
241 290 240 296 356 354 151 303 356 335 350 313 308 315 291 338 337 342 343 341 340 339 340 341 6 14 29 33 39 35 37 40 32 12 302 232 216 200 189 182 161 142 150 168
143 211 288 334 29 287 352 355 337 232 318 299 306 309 328 343 336 335 337 340 337 340 341 339 4 19 24 33 41 43 42 50 52 58 93 133 127 130 147 139 135 122 141 141
211 249 279 253 234 142 143 3 297 303 311 258 248 290 9 335 335 334 340 341 343 347 338 350 9 24 30 31 27 43 49 64 69 83 99 98 96 105 113 111 113 123 124 120
151 308 323 350 28 11 24 347 341 285 275 290 317 298 16 341 350 349 350 351 351 349 358 11 20 25 27 31 32 44 57 69 80 90 92 89 88 90 92 96 103 105 108 107
209 227 190 208 225 70 312 337 355 324 353 312 292 306 341 2 352 353 358 358 356 1 12 21 23 21 25 30 37 44 54 72 82 87 83 79 81 82 86 91 96 100 102 103
94 208 297 266 267 175 242 281 347 360 328 335 314 326 344 4 356 349 357 7 10 13 20 21 23 25 24 27 36 42 52 67 76 80 77 75 83 88 84 86 90 96 95 94
54 269 23 294 302 210 250 291 357 310 318 324 321 325 0 4 2 6 5 5 13 14 20 23 25 27 27 25 30 39 46 58 70 74 72 76 80 88 84 84 86 86 88 88
66 88 47 276 340 8 334 233 202 244 310 266 355 315 333 344 15 8 358 6 19 22 21 23 27 26 22 22 28 38 49 61 66 65 68 76 80 77 84 87 85 81 81 87
130 91 97 274 2 14 235 196 163 160 236 273 286 310 336 340 5 18 9 7 9 11 14 15 14 20 19 27 36 49 53 55 60 59 63 68 80 81 82 85 86 87 88 85
156 115 13 20 268 290 331 152 179 151 279 229 277 328 338 331 313 26 10 7 10 10 9 13 17 18 31 35 37 50 54 55 59 57 63 72 79 83 87 88 90 93 94 90
84 60 120 52 128 214 241 157 134 118 309 181 192 349 327 329 47 339 348 357 7 13 19 14 18 29 42 37 41 54 51 52 46 57 73 76 78 78 78 85 86 90 92 94
40 8 167 185 236 285 245 160 159 82 235 162 153 105 32 78 224 310 345 359 7 9 13 27 36 37 35 42 52 54 55 46 56 66 70 71 71 75 82 85 85 91 94 96
173 150 204 84 50 293 175 96 183 181 108 146 148 155 127 150 165 352 360 5 12 12 18 29 36 37 38 44 54 49 50 44 57 67 74 76 79 82 86 89 98 101 104 100
295 192 183 182 215 213 195 216 215 164 151 174 160 173 164 174 229 316 290 326 354 25 44 48 56 58 50 47 46 45 34 36 41 54 65 74 81 88 96 108 116 116 115 114
244 173 202 53 278 217 205 211 197 186 184 162 159 164 173 176 183 216 266 302 346 9 23 38 50 51 43 38 38 38 31 34 36 43 50 63 77 92 104 109 107 109 109 116
196 128 181 266 270 314 249 222 189 178 137 133 112 148 179 165 203 195 198 237 286 349 32 45 42 40 33 26 25 24 24 25 30 31 33 37 40 49 69 67 60 73 77 64
186 188 174 222 212 170 218 187 167 162 186 181 152 192 201 185 189 190 208 204 230 254 323 31 38 33 24 16 14 16 21 22 20 13 15 19 27 52 91 94 91 79 90 88